[[{"header":{"parameterUnit":"m.s-1","parameterCategory":2,"la1":30.2991,"la2":30.254,"lo1":-89.0895,"lo2":-89.0444,"dy":0.0017,"dx":0.0017,"nx":28,"ny":28,"refTime":"2025-04-07T03:00:00:Z","depth":"0","parameterNumber":2,"parameterNumberName":"U-component_of_CURRENTS"},"data":[0,0,0,0,0,0,0,0,0,0,0,0,0,0,0,0,0,0,0,0,0,0,0,0,0,0,0,0,0,0,0,0,0,0,0,0,0,0,0,0,0,0,0,0,0,0,0,0,0,0,0,0,0,0,0,0,0,0,0.2831,0.2831,0,0.2824,0.2824,0.2824,0.2793,0.2793,0.2792,0.2792,0.2747,0.2746,0.2745,0,0,0,0,0,0,0,0,0,0,0,0,0,0.2827,0.2827,0.2831,0.2831,0.2831,0.2824,0.2824,0.2823,0.2793,0.2793,0.2792,0.2792,0.2747,0.2746,0.2745,0,0,0,0,0,0,0,0,0,0,0,0,0,0.2823,0.2827,0.2831,0.2817,0.2816,0.2824,0.2824,0.2823,0.2794,0.2793,0.2792,0.2792,0.2747,0.2746,0.2745,0.2752,0,0,0.2742,0.2741,0,0,0,0,0,0,0,0,0.2823,0.2822,0.2819,0.2818,0.2817,0.2811,0.2806,0.2798,0.2794,0.2799,0.2792,0.2791,0.2767,0.2764,0.2761,0.275,0.2748,0.2741,0.2741,0.274,0.274,0,0,0,0,0,0,0,0.2823,0.2823,0.2825,0.2819,0.2818,0.2815,0.2813,0.2804,0.2784,0.2799,0.2797,0.2801,0.2766,0.2762,0.276,0.2747,0.2741,0.274,0.274,0.2739,0.2769,0.277,0,0,0,0,0,0,0.283,0.2823,0.2826,0.2825,0.2822,0.2816,0.2814,0.2812,0.2785,0.2782,0.2802,0.28,0.2765,0.2761,0.2758,0.2786,0.274,0.2739,0.2738,0.2768,0.2769,0.2771,0,0,0,0,0,0,0.283,0.283,0.2826,0.2827,0.2826,0.2817,0.2815,0.2812,0.2812,0.2788,0.2783,0.2806,0.2764,0.276,0.2762,0.2783,0.2739,0.2738,0.2766,0.2768,0.277,0.2828,0,0,0,0,0,0,0.283,0.283,0.2832,0.2827,0.2826,0.2836,0.2815,0.2812,0.2817,0.2814,0.279,0.2785,0.2763,0.2764,0.2761,0.2781,0.2737,0.2764,0.2767,0.2769,0.2824,0.2831,0.2838,0,0,0,0,0,0.2829,0.2831,0.2832,0.2833,0.2829,0.2837,0.2836,0.2825,0.2818,0.2822,0.2811,0.2786,0.278,0.2764,0.276,0.278,0.2763,0.2766,0.2769,0.2821,0.283,0.2838,0,0,0,0,0,0,0.2825,0.2829,0.2829,0.2831,0.2838,0.2833,0.2835,0.2833,0.2828,0.2826,0.28,0.2795,0.2807,0.279,0.2773,0.2799,0.2769,0.2772,0.2809,0.2818,0.2825,0.2837,0.2736,0,0,0,0,0,0.2829,0.2832,0.2839,0.2841,0.2846,0.2845,0.2847,0.2845,0.2841,0.2838,0.2823,0.2815,0.2819,0.2814,0.281,0.282,0.2825,0.2833,0.284,0.2846,0.2856,0.289,0.2901,0.2782,0.2782,0.2782,0,0,0.2826,0.2831,0.2831,0.2841,0.2843,0.2859,0.2843,0.2853,0.2867,0.2835,0.2844,0.2839,0.2829,0.2843,0.2847,0.2829,0.2886,0.2851,0.2856,0.2862,0.2894,0.2906,0.2916,0.2784,0.2784,0.2783,0,0,0.2827,0.283,0.2837,0.2849,0.2864,0.287,0.2878,0.2882,0.2884,0.2897,0.2885,0.2898,0.2888,0.2894,0.2894,0.2941,0.2925,0.2937,0.2977,0.3011,0.302,0.3029,0.3059,0.307,0.2937,0.2937,0.2937,0,0.2826,0.2835,0.2841,0.2856,0.2868,0.2879,0.2896,0.2907,0.2912,0.2924,0.2907,0.2929,0.2917,0.2951,0.2967,0.2957,0.2971,0.2942,0.302,0.3029,0.3037,0.3065,0.3077,0.294,0.294,0.294,0.2939,0,0.2834,0.2848,0.2854,0.288,0.2895,0.2912,0.2934,0.2952,0.2959,0.2972,0.3004,0.2999,0.3013,0.3015,0.3003,0.3058,0.3049,0.3027,0.2997,0.3052,0.3079,0.309,0.2945,0.2944,0.2943,0.2942,0,0,0.2816,0.2853,0.2856,0.2869,0.291,0.2918,0.296,0.2997,0.3033,0.304,0.3082,0.3095,0.3098,0.3101,0.3095,0.3122,0.319,0.3101,0.3101,0.3129,0.3268,0.3248,0.3257,0.3182,0.3184,0.3185,0.3266,0,0.2823,0.2847,0.2871,0.2902,0.2916,0.2951,0.299,0.3028,0.3065,0.3111,0.3126,0.3163,0.313,0.3147,0.3171,0.3193,0.3221,0.3171,0.3212,0.3213,0.3187,0.327,0.3193,0.3258,0.3277,0.3278,0.328,0,0.282,0.2839,0.2864,0.2911,0.2922,0.2948,0.3015,0.3056,0.3136,0.3169,0.3215,0.3232,0.3285,0.3245,0.3308,0.3278,0.328,0.3287,0.329,0.3258,0.3214,0.3205,0.3276,0.324,0.3296,0.3295,0.3293,0,0.2785,0.2831,0.2848,0.2863,0.2923,0.2945,0.2986,0.3067,0.3118,0.3216,0.3266,0.3321,0.3359,0.3379,0.339,0.3359,0.3457,0.3412,0.3394,0.3392,0.333,0.3319,0.3368,0.3455,0.3455,0.3455,0.3455,0,0.2774,0.2786,0.2831,0.2838,0.2874,0.2923,0.2985,0.3047,0.315,0.3217,0.3289,0.3352,0.3396,0.3447,0.3438,0.3465,0.3496,0.3428,0.3423,0.3348,0.3338,0.3302,0.3269,0.3458,0.3457,0.3457,0.3456,0,0.2729,0.2759,0.278,0.2836,0.2855,0.2879,0.2976,0.3024,0.3138,0.3232,0.3267,0.3399,0.3479,0.3513,0.3567,0.3532,0.3471,0.3543,0.3455,0.3438,0.3369,0.3341,0.3222,0.3113,0.3547,0.3547,0.3547,0,0.2706,0.2711,0.2761,0.2771,0.2795,0.2844,0.2881,0.3001,0.3064,0.3247,0.3286,0.3419,0.3499,0.3599,0.3586,0.3601,0.3478,0.3511,0.3432,0.3384,0.3349,0.3184,0.3087,0.3376,0.3375,0.3374,0.3373,0,0.2665,0.2682,0.2696,0.2721,0.2748,0.2785,0.2851,0.2904,0.3045,0.3142,0.3276,0.3369,0.3506,0.3521,0.3564,0.3547,0.3372,0.3489,0.3464,0.3253,0.3051,0.2937,0.3305,0.3363,0.3364,0.3365,0.3365,0.3366,0.2627,0.2625,0.2642,0.2658,0.2682,0.2701,0.2706,0.28,0.2891,0.3015,0.3174,0.3281,0.3428,0.3501,0.3462,0.3396,0.3309,0.3307,0.329,0.3136,0.2986,0.3338,0.337,0.3371,0.3372,0.3373,0.3374,0,0.2566,0.2566,0.2577,0.2578,0.2561,0.2609,0.2658,0.2655,0.2712,0.2886,0.3,0.3163,0.3237,0.3313,0.3339,0.3234,0.3038,0.3147,0.2917,0.2838,0.3203,0.3155,0.311,0.311,0.311,0.311,0.311,0.311,0.2533,0.2505,0.2507,0.245,0.2447,0.2389,0.2391,0.2424,0.2519,0.2629,0.273,0.287,0.3143,0.33,0.325,0.3149,0.2899,0.2771,0.2716,0.3036,0.3049,0.3061,0.3011,0.2937,0.2936,0.2234,0.2229,0.2226]},{"header":{"parameterUnit":"m.s-1","parameterCategory":2,"la1":30.2991,"la2":30.254,"lo1":-89.0895,"lo2":-89.0444,"dy":0.0017,"dx":0.0017,"nx":28,"ny":28,"refTime":"2025-04-07T03:00:00:Z","depth":"0","parameterNumber":3,"parameterNumberName":"V-component_of_CURRENTS"},"data":[0,0,0,0,0,0,0,0,0,0,0,0,0,0,0,0,0,0,0,0,0,0,0,0,0,0,0,0,0,0,0,0,0,0,0,0,0,0,0,0,0,0,0,0,0,0,0,0,0,0,0,0,0,0,0,0,0,0,0.0122,0.0122,0,0.0085,0.0084,0.0084,0.0055,0.0055,0.0055,0.0055,0.0012,0.0011,0.001,0,0,0,0,0,0,0,0,0,0,0,0,0,0.0107,0.0108,0.0122,0.0121,0.0121,0.0085,0.0084,0.0083,0.0055,0.0055,0.0055,0.0055,0.0013,0.0011,0.001,0,0,0,0,0,0,0,0,0,0,0,0,0,0.0095,0.0108,0.0122,0.0104,0.0102,0.0085,0.0084,0.0083,0.0055,0.0055,0.0055,0.0055,0.0013,0.0012,0.001,0.0005,0,0,0.0006,0.0005,0,0,0,0,0,0,0,0,0.0096,0.0096,0.0107,0.0105,0.0103,0.0075,0.0063,0.0057,0.0055,0.0072,0.0055,0.0055,0.0034,0.0031,0.0022,0.0003,0.0002,0.0005,0.0004,0.0004,0.0003,0,0,0,0,0,0,0,0.0097,0.0097,0.0106,0.0106,0.0104,0.0076,0.0075,0.0062,0.0053,0.007,0.0068,0.0066,0.0033,0.0024,0.0021,0.0001,0.0005,0.0004,0.0003,0.0003,-0.0025,-0.0025,0,0,0,0,0,0,0.0108,0.0098,0.0107,0.0105,0.01,0.0077,0.0075,0.0083,0.0054,0.0049,0.0066,0.0065,0.0027,0.0023,0.002,0.0027,0.0004,0.0002,0.0002,-0.0025,-0.0025,-0.0025,0,0,0,0,0,0,0.0108,0.0109,0.0109,0.0101,0.0099,0.0078,0.0087,0.0083,0.0078,0.0051,0.0046,0.0067,0.0026,0.0022,0.0014,0.0025,0.0002,0.0,-0.0026,-0.0025,-0.0025,0.0033,0,0,0,0,0,0,0.0108,0.011,0.0118,0.0102,0.01,0.011,0.0087,0.0082,0.0077,0.0075,0.005,0.0045,0.0026,0.0017,0.0013,0.0022,-0.0001,-0.0026,-0.0026,-0.0025,0.0031,0.0035,0.0039,0,0,0,0,0,0.0108,0.0127,0.0118,0.0119,0.0112,0.011,0.0107,0.0089,0.0078,0.0082,0.0062,0.0046,0.0015,0.0016,0.0011,0.0021,-0.0026,-0.0026,-0.0025,0.0029,0.0034,0.0039,0,0,0,0,0,0,0.0124,0.0125,0.0116,0.0134,0.0125,0.0106,0.0108,0.0095,0.0082,0.0078,0.0051,0.0046,0.0041,0.0022,0.0023,0.0011,-0.0009,-0.001,0.0033,0.0038,0.0042,0.0061,-0.0002,0,0,0,0,0,0.0132,0.0146,0.0137,0.0149,0.0148,0.0127,0.0123,0.0112,0.0099,0.0093,0.0074,0.0053,0.0037,0.0032,0.0014,0.0012,-0.0015,0.0013,0.0017,0.0021,0.0032,-0.0004,-0.0002,-0.0024,-0.0024,-0.0024,0,0,0.014,0.0142,0.0149,0.0153,0.0143,0.0156,0.0124,0.0125,0.0133,0.0091,0.0095,0.0067,0.0039,0.0035,0.0031,0.0023,0.0011,0.0021,0.0025,0.0034,-0.0004,-0.0002,0.0,-0.0024,-0.0024,-0.0024,0,0,0.017,0.0168,0.019,0.0191,0.0185,0.0175,0.0179,0.0164,0.0155,0.0152,0.0123,0.0104,0.0082,0.0065,0.0053,0.0069,0.0031,0.0059,0.01,0.0064,0.0066,0.0067,0.0032,0.0029,0.0064,0.0064,0.0064,0,0.018,0.0211,0.0195,0.0217,0.0225,0.0191,0.0218,0.0204,0.0187,0.0186,0.0163,0.0124,0.0098,0.0095,0.0098,0.0079,0.0052,0.0086,0.007,0.0071,0.0071,0.0035,0.0031,0.0067,0.0067,0.0066,0.0066,0,0.0229,0.0251,0.0264,0.0285,0.0289,0.0305,0.029,0.0286,0.0265,0.0251,0.0236,0.0189,0.017,0.0152,0.0131,0.0123,0.01,0.0078,0.0062,0.0077,0.0037,0.0033,0.0071,0.007,0.0069,0.0069,0,0,0.0262,0.0295,0.03,0.0325,0.0329,0.0342,0.0352,0.0357,0.0372,0.0328,0.0339,0.0292,0.0259,0.0243,0.0203,0.017,0.0141,0.0132,0.0128,0.0104,0.0062,0.0041,0.0033,0.0115,0.0115,0.0114,0.0032,0,0.0307,0.0369,0.037,0.0425,0.0458,0.0436,0.0452,0.0447,0.0431,0.0429,0.0365,0.0357,0.0296,0.0287,0.0243,0.0172,0.0132,0.0165,0.0045,0.0041,0.0027,0.0029,0.0051,-0.002,0.0027,0.0027,0.0026,0,0.036,0.0398,0.0463,0.0508,0.0519,0.054,0.0566,0.058,0.056,0.0546,0.0513,0.0462,0.041,0.0351,0.0231,0.0255,0.0168,0.01,0.0095,0.0056,0.0013,-0.0028,-0.0031,-0.0183,0.0018,0.0019,0.002,0,0.0403,0.0463,0.052,0.0537,0.0577,0.0596,0.0614,0.0615,0.0648,0.0624,0.0636,0.0551,0.052,0.0398,0.0252,0.0243,0.0111,0.0079,-0.0025,-0.0028,-0.0042,-0.0045,-0.0198,-0.0009,-0.0009,-0.0009,-0.0009,0,0.0459,0.0505,0.0546,0.058,0.0652,0.0653,0.0723,0.0723,0.0743,0.0794,0.0704,0.0716,0.053,0.0429,0.0283,0.0119,0.0131,-0.0014,-0.0049,-0.0022,-0.0022,-0.0182,-0.0286,-0.0012,-0.0011,-0.0011,-0.001,0,0.0502,0.0525,0.06,0.0654,0.0677,0.073,0.0809,0.0861,0.0861,0.0922,0.0919,0.084,0.0712,0.0516,0.0318,0.0173,-0.0087,-0.0055,-0.0012,-0.0039,-0.0275,-0.0376,-0.0573,-0.0652,-0.0179,-0.018,-0.0181,0,0.0531,0.0573,0.0661,0.0714,0.0743,0.0823,0.0884,0.0919,0.0989,0.1007,0.1048,0.0937,0.0893,0.0588,0.0307,0.0043,-0.0121,-0.0122,-0.0138,-0.0284,-0.0422,-0.0486,-0.0543,-0.014,-0.014,-0.0141,-0.0141,0,0.059,0.0616,0.068,0.0793,0.0869,0.0971,0.1061,0.1137,0.1182,0.123,0.1273,0.1235,0.0942,0.0695,0.0316,0.0116,-0.0236,-0.0137,-0.03,-0.0413,-0.0482,-0.0574,-0.0095,-0.0144,-0.0143,-0.0143,-0.0143,-0.0143,0.0631,0.0687,0.0771,0.0882,0.0976,0.1102,0.1203,0.1306,0.1426,0.1524,0.1465,0.1463,0.1074,0.0571,0.0262,-0.0259,-0.0274,-0.0394,-0.0508,-0.056,-0.0633,-0.016,-0.0238,-0.0239,-0.0239,-0.0239,-0.0239,0,0.0685,0.0751,0.0855,0.0988,0.1103,0.1146,0.1313,0.1427,0.1583,0.1677,0.1725,0.1552,0.1078,0.0565,-0.0135,-0.0525,-0.0678,-0.0751,-0.0839,-0.0882,-0.0465,-0.0457,-0.057,-0.057,-0.057,-0.057,-0.057,-0.057,0.0713,0.0818,0.0875,0.107,0.1169,0.1341,0.1447,0.1614,0.1736,0.1873,0.1899,0.1881,0.1501,0.0228,-0.0633,-0.0861,-0.115,-0.1228,-0.1373,-0.1087,-0.1062,-0.1038,-0.1052,-0.1289,-0.129,-0.1709,-0.1714,-0.1717]}],[{"header":{"parameterUnit":"m.s-1","parameterCategory":2,"la1":30.2991,"la2":30.254,"lo1":-89.0895,"lo2":-89.0444,"dy":0.0017,"dx":0.0017,"nx":28,"ny":28,"refTime":"2025-04-07T03:00:00:Z","depth":"2","parameterNumber":2,"parameterNumberName":"U-component_of_CURRENTS"},"data":[0,0,0,0,0,0,0,0,0,0,0,0,0,0,0,0,0,0,0,0,0,0,0,0,0,0,0,0,0,0,0,0,0,0,0,0,0,0,0,0,0,0,0,0,0,0,0,0,0,0,0,0,0,0,0,0,0,0,0.2705,0.2706,0,0.2703,0.2703,0.2703,0.2679,0.2679,0.2678,0.2678,0.2642,0.2641,0.264,0,0,0,0,0,0,0,0,0,0,0,0,0,0.2696,0.2696,0.2705,0.2706,0.2706,0.2703,0.2703,0.2703,0.2679,0.2679,0.2678,0.2678,0.2642,0.2641,0.264,0,0,0,0,0,0,0,0,0,0,0,0,0,0.2695,0.2696,0.2705,0.2696,0.2695,0.2703,0.2703,0.2703,0.2679,0.2679,0.2678,0.2678,0.2642,0.2641,0.264,0.2645,0,0,0.2637,0.2637,0,0,0,0,0,0,0,0,0.2695,0.2695,0.2697,0.2696,0.2696,0.2693,0.2686,0.2682,0.2679,0.2682,0.2678,0.2677,0.2658,0.2656,0.2653,0.2643,0.2641,0.2637,0.2637,0.2636,0.2636,0,0,0,0,0,0,0,0.2695,0.2695,0.2702,0.2697,0.2697,0.2694,0.2693,0.2685,0.267,0.2682,0.2681,0.2685,0.2657,0.2654,0.2652,0.2641,0.2637,0.2636,0.2636,0.2635,0.2669,0.2671,0,0,0,0,0,0,0.2701,0.2695,0.2702,0.2702,0.2697,0.2695,0.2693,0.2692,0.2671,0.2668,0.2686,0.2684,0.2656,0.2653,0.265,0.2682,0.2636,0.2635,0.2635,0.2668,0.2669,0.2671,0,0,0,0,0,0,0.2701,0.2701,0.2702,0.2701,0.2701,0.2696,0.2695,0.2693,0.2696,0.2675,0.2671,0.2692,0.2655,0.2652,0.2657,0.2679,0.2635,0.2634,0.2666,0.2668,0.267,0.2727,0,0,0,0,0,0,0.27,0.2701,0.2705,0.2701,0.2701,0.2713,0.2695,0.2693,0.2701,0.2699,0.2679,0.2675,0.2655,0.2659,0.2656,0.2677,0.2633,0.2664,0.2667,0.267,0.2723,0.2731,0.2738,0,0,0,0,0,0.27,0.2704,0.2705,0.2707,0.2706,0.2714,0.2714,0.2707,0.2702,0.2707,0.2699,0.2676,0.2675,0.2659,0.2656,0.2677,0.2663,0.2666,0.2669,0.272,0.273,0.2737,0,0,0,0,0,0,0.2696,0.2702,0.2703,0.2707,0.2716,0.2711,0.2716,0.2716,0.2714,0.2713,0.269,0.2686,0.2701,0.2685,0.2668,0.2697,0.2667,0.267,0.2707,0.2715,0.2722,0.2734,0.2632,0,0,0,0,0,0.2701,0.2706,0.2713,0.2718,0.2724,0.2725,0.2729,0.2728,0.2726,0.2725,0.2713,0.2707,0.2712,0.271,0.2707,0.2719,0.2723,0.2733,0.274,0.2746,0.2755,0.2787,0.2798,0.2682,0.2682,0.2682,0,0,0.27,0.2705,0.2707,0.2719,0.2722,0.2738,0.2725,0.2736,0.2751,0.2722,0.2734,0.2731,0.2723,0.2739,0.2744,0.2726,0.2784,0.275,0.2755,0.2761,0.2792,0.2803,0.2813,0.2684,0.2684,0.2683,0,0,0.2703,0.2708,0.2716,0.2729,0.2745,0.2752,0.276,0.2766,0.277,0.2786,0.2776,0.2791,0.2784,0.279,0.2791,0.2838,0.2823,0.2836,0.2875,0.2907,0.2917,0.2926,0.2954,0.2965,0.2836,0.2836,0.2836,0,0.2705,0.2714,0.2721,0.2737,0.2749,0.2762,0.2779,0.2791,0.2799,0.2811,0.2797,0.2822,0.2813,0.2847,0.2863,0.2854,0.2867,0.2841,0.2917,0.2925,0.2933,0.296,0.2971,0.2839,0.2839,0.2838,0.2838,0,0.2714,0.2729,0.2736,0.2762,0.2778,0.2795,0.2818,0.2837,0.2847,0.286,0.2895,0.2891,0.2907,0.2911,0.2899,0.2954,0.2945,0.2924,0.2893,0.2948,0.2973,0.2983,0.2843,0.2842,0.2841,0.2841,0,0,0.27,0.2736,0.2739,0.2753,0.2794,0.2802,0.2844,0.2881,0.2917,0.2928,0.297,0.2985,0.2991,0.2994,0.2989,0.3015,0.3083,0.2996,0.2996,0.3022,0.3158,0.3132,0.314,0.3075,0.3077,0.3078,0.3155,0,0.2707,0.2732,0.2756,0.2787,0.2801,0.2836,0.2875,0.2912,0.295,0.2997,0.3013,0.3051,0.3021,0.3041,0.3064,0.3085,0.3112,0.3064,0.3103,0.3104,0.3073,0.3152,0.2885,0.2929,0.3165,0.3167,0.3168,0,0.2706,0.2725,0.2751,0.2797,0.2808,0.2835,0.2901,0.2942,0.302,0.3054,0.3101,0.3119,0.3172,0.3135,0.3196,0.3168,0.317,0.3177,0.3179,0.3142,0.3098,0.2912,0.2939,0.3185,0.3184,0.3183,0.3182,0,0.2674,0.272,0.2737,0.2752,0.281,0.2834,0.2875,0.2954,0.3005,0.3102,0.3151,0.3206,0.3245,0.3264,0.3276,0.3247,0.334,0.3296,0.3274,0.3271,0.3045,0.302,0.3338,0.3338,0.3338,0.3338,0.3338,0,0.2664,0.2677,0.2722,0.273,0.2767,0.2815,0.2877,0.2939,0.304,0.3104,0.3176,0.3237,0.3281,0.333,0.3322,0.3344,0.3377,0.3306,0.33,0.3059,0.3035,0.325,0.3238,0.3341,0.334,0.334,0.3339,0,0.2622,0.2652,0.2674,0.273,0.275,0.2775,0.2871,0.2918,0.303,0.3121,0.3157,0.3283,0.3359,0.3392,0.3443,0.3407,0.3425,0.3414,0.3135,0.3096,0.3322,0.3313,0.341,0.341,0.341,0.341,0.341,0,0.2601,0.2607,0.2658,0.2669,0.2694,0.2744,0.278,0.2898,0.2958,0.3135,0.3171,0.3299,0.3368,0.3459,0.3418,0.3423,0.3452,0.3172,0.3069,0.3351,0.3335,0.3326,0.3317,0.2787,0.2782,0.2778,0.2774,0,0.2562,0.258,0.2595,0.2622,0.2649,0.2684,0.275,0.28,0.2937,0.3028,0.3152,0.3234,0.3335,0.3237,0.3262,0.3218,0.3154,0.309,0.3455,0.2825,0.2773,0.2755,0.2764,0.2737,0.2741,0.2743,0.2745,0.2747,0.2527,0.2525,0.2544,0.2561,0.2586,0.2602,0.2606,0.2687,0.2769,0.2857,0.3014,0.303,0.3068,0.2985,0.2894,0.2806,0.3023,0.2857,0.2865,0.2879,0.2808,0.276,0.2708,0.2711,0.2714,0.2717,0.2719,0,0.2465,0.2469,0.2481,0.2482,0.246,0.2514,0.2558,0.2529,0.2566,0.2668,0.2744,0.2542,0.2508,0.2525,0.2346,0.2365,0.2288,0.2256,0.2112,0.2154,0.219,0.2077,0.1787,0.1784,0.178,0.1778,0,0,0.2431,0.2403,0.2403,0.2344,0.2347,0.228,0.228,0.2262,0.229,0.226,0.2236,0.2414,0.2488,0.2104,0.2065,0.189,0.2,0.1818,0.2576,0.2451,0.2482,0.2561,0.244,0,0,0,0,0]},{"header":{"parameterUnit":"m.s-1","parameterCategory":2,"la1":30.2991,"la2":30.254,"lo1":-89.0895,"lo2":-89.0444,"dy":0.0017,"dx":0.0017,"nx":28,"ny":28,"refTime":"2025-04-07T03:00:00:Z","depth":"2","parameterNumber":3,"parameterNumberName":"V-component_of_CURRENTS"},"data":[0,0,0,0,0,0,0,0,0,0,0,0,0,0,0,0,0,0,0,0,0,0,0,0,0,0,0,0,0,0,0,0,0,0,0,0,0,0,0,0,0,0,0,0,0,0,0,0,0,0,0,0,0,0,0,0,0,0,0.0208,0.0208,0,0.0172,0.0172,0.0171,0.0144,0.0144,0.0144,0.0143,0.0103,0.0102,0.0101,0,0,0,0,0,0,0,0,0,0,0,0,0,0.0198,0.0198,0.0208,0.0208,0.0208,0.0172,0.0172,0.0171,0.0144,0.0144,0.0144,0.0143,0.0103,0.0102,0.0101,0,0,0,0,0,0,0,0,0,0,0,0,0,0.0185,0.0199,0.0208,0.019,0.0189,0.0172,0.0172,0.0171,0.0144,0.0144,0.0144,0.0143,0.0103,0.0102,0.0101,0.0097,0,0,0.0096,0.0096,0,0,0,0,0,0,0,0,0.0186,0.0186,0.0193,0.0192,0.0189,0.0163,0.0153,0.0146,0.0144,0.016,0.0143,0.0143,0.0123,0.012,0.0113,0.0095,0.0093,0.0096,0.0095,0.0095,0.0094,0,0,0,0,0,0,0,0.0187,0.0187,0.0193,0.0193,0.0191,0.0165,0.0163,0.0151,0.0143,0.0159,0.0157,0.0154,0.0122,0.0114,0.0112,0.0093,0.0096,0.0095,0.0094,0.0094,0.0066,0.0066,0,0,0,0,0,0,0.0197,0.0188,0.0194,0.0192,0.0188,0.0166,0.0164,0.0171,0.0143,0.0139,0.0154,0.0153,0.0117,0.0113,0.011,0.0116,0.0095,0.0093,0.0093,0.0066,0.0066,0.0066,0,0,0,0,0,0,0.0197,0.0198,0.0196,0.0189,0.0187,0.0167,0.0175,0.0171,0.0165,0.014,0.0135,0.0154,0.0116,0.0112,0.0104,0.0114,0.0093,0.0092,0.0066,0.0066,0.0066,0.012,0,0,0,0,0,0,0.0197,0.0199,0.0205,0.019,0.0188,0.0196,0.0175,0.017,0.0164,0.0162,0.0138,0.0133,0.0116,0.0107,0.0103,0.0111,0.009,0.0066,0.0066,0.0066,0.0118,0.0122,0.0125,0,0,0,0,0,0.0197,0.0214,0.0206,0.0207,0.0199,0.0196,0.0193,0.0176,0.0164,0.0169,0.015,0.0134,0.0105,0.0106,0.0101,0.011,0.0066,0.0066,0.0066,0.0117,0.0121,0.0125,0,0,0,0,0,0,0.0211,0.0212,0.0203,0.0219,0.0211,0.0192,0.0193,0.0181,0.0168,0.0164,0.0139,0.0134,0.0128,0.0111,0.0112,0.0101,0.0081,0.0081,0.0121,0.0125,0.0129,0.0148,0.0089,0,0,0,0,0,0.0218,0.0231,0.0222,0.0233,0.0231,0.0212,0.0207,0.0197,0.0184,0.0177,0.016,0.0139,0.0125,0.012,0.0103,0.0101,0.0075,0.0101,0.0105,0.0108,0.0119,0.0083,0.0085,0.0067,0.0067,0.0067,0,0,0.0226,0.0227,0.0234,0.0236,0.0227,0.0238,0.0209,0.0208,0.0216,0.0175,0.0179,0.0152,0.0126,0.0122,0.0118,0.0111,0.0098,0.0108,0.0112,0.0121,0.0084,0.0086,0.0087,0.0067,0.0067,0.0067,0,0,0.0253,0.025,0.0271,0.0271,0.0265,0.0256,0.0259,0.0244,0.0235,0.0232,0.0204,0.0185,0.0165,0.0149,0.0139,0.0152,0.0116,0.0143,0.0181,0.0146,0.0147,0.0148,0.0113,0.011,0.0147,0.0148,0.0148,0,0.026,0.029,0.0275,0.0295,0.0303,0.027,0.0295,0.0282,0.0265,0.0264,0.0241,0.0205,0.0179,0.0177,0.0179,0.0162,0.0135,0.0169,0.0152,0.0152,0.0152,0.0115,0.0112,0.015,0.015,0.015,0.0149,0,0.0307,0.0328,0.034,0.0359,0.0363,0.0378,0.0363,0.0359,0.0339,0.0325,0.031,0.0265,0.0247,0.023,0.021,0.0201,0.0179,0.0159,0.0144,0.0157,0.0117,0.0113,0.0154,0.0153,0.0152,0.0152,0,0,0.0336,0.0368,0.0373,0.0398,0.0401,0.0414,0.0422,0.0427,0.0441,0.0398,0.0408,0.0363,0.0331,0.0316,0.0278,0.0245,0.0215,0.0208,0.0205,0.018,0.0136,0.0114,0.0106,0.019,0.019,0.0189,0.0107,0,0.0378,0.0438,0.0439,0.0492,0.0523,0.0502,0.0518,0.0513,0.0498,0.0495,0.0433,0.0425,0.0367,0.0358,0.0314,0.0245,0.0206,0.0239,0.0121,0.0118,0.0102,0.0101,0.0127,0.0056,0.0102,0.0101,0.01,0,0.0427,0.0464,0.0527,0.0571,0.0582,0.0602,0.0628,0.0641,0.0621,0.0607,0.0575,0.0525,0.0474,0.0418,0.0299,0.0323,0.0238,0.0173,0.0167,0.0128,0.0088,0.0049,0.0045,0.0092,0.0093,0.0093,0.0094,0,0.0468,0.0526,0.0582,0.0598,0.0637,0.0656,0.0673,0.0674,0.0706,0.0682,0.0693,0.061,0.0579,0.046,0.0318,0.031,0.0179,0.0149,0.0046,0.0043,0.0034,0.0031,0.0062,0.0062,0.0063,0.0063,0.0063,0,0.0521,0.0565,0.0606,0.0639,0.0709,0.0711,0.0778,0.0779,0.0797,0.0847,0.0758,0.0768,0.0588,0.0489,0.0347,0.0185,0.0197,0.0055,0.0022,0.0052,0.0052,0.006,0.0061,0.006,0.006,0.0061,0.0062,0,0.0562,0.0585,0.0658,0.0711,0.0733,0.0785,0.0862,0.0912,0.0912,0.097,0.0966,0.0888,0.076,0.057,0.0376,0.0235,0.0075,0.0012,0.0058,0.0032,-0.0047,-0.0043,-0.0109,-0.0111,-0.0112,-0.0113,-0.0114,0,0.059,0.0631,0.0717,0.0769,0.0797,0.0875,0.0934,0.0968,0.1037,0.1051,0.109,0.0979,0.0932,0.0632,0.0361,0.0102,0.0067,-0.0054,-0.0067,-0.0038,-0.0064,-0.0057,-0.0051,-0.0064,-0.0065,-0.0065,-0.0065,0,0.0647,0.0672,0.0735,0.0845,0.0919,0.1019,0.1107,0.118,0.1223,0.1266,0.1303,0.1261,0.0973,0.0721,0.0351,0.017,-0.0013,-0.0068,-0.0051,-0.002,-0.0001,-0.0025,-0.0019,-0.0068,-0.0068,-0.0067,-0.0067,-0.0067,0.0686,0.0741,0.0823,0.0931,0.1023,0.1146,0.1244,0.1339,0.1452,0.1523,0.147,0.1408,0.1103,0.0643,0.032,-0.0034,-0.0013,-0.0135,-0.0132,-0.0129,-0.0104,-0.0088,-0.0167,-0.0167,-0.0167,-0.0167,-0.0168,0,0.0739,0.0803,0.0904,0.1034,0.1147,0.1189,0.1352,0.145,0.1589,0.1627,0.1653,0.1362,0.1065,0.07,0.0191,-0.0105,-0.013,-0.0213,-0.0168,-0.0163,-0.0159,-0.0134,-0.0206,-0.0207,-0.0208,-0.0209,0,0,0.0767,0.0868,0.0924,0.1114,0.1211,0.1376,0.1478,0.1612,0.1684,0.1735,0.1689,0.1609,0.117,0.0799,0.039,0.0094,0.0029,0.0024,0.0088,0.0195,0.0203,-0.0081,-0.0033,0,0,0,0,0]}],[{"header":{"parameterUnit":"m.s-1","parameterCategory":2,"la1":30.2991,"la2":30.254,"lo1":-89.0895,"lo2":-89.0444,"dy":0.0017,"dx":0.0017,"nx":28,"ny":28,"refTime":"2025-04-07T03:00:00:Z","depth":"4","parameterNumber":2,"parameterNumberName":"U-component_of_CURRENTS"},"data":[0,0,0,0,0,0,0,0,0,0,0,0,0,0,0,0,0,0,0,0,0,0,0,0,0,0,0,0,0,0,0,0,0,0,0,0,0,0,0,0,0,0,0,0,0,0,0,0,0,0,0,0,0,0,0,0,0,0,0.1793,0.1793,0,0.1851,0.1851,0.1852,0.1899,0.1899,0.19,0.19,0.1964,0.1965,0.1967,0,0,0,0,0,0,0,0,0,0,0,0,0,0.1718,0.1719,0.1792,0.1793,0.1794,0.1851,0.1851,0.1852,0.1898,0.1899,0.19,0.1901,0.1964,0.1965,0.1967,0,0,0,0,0,0,0,0,0,0,0,0,0,0.1759,0.1719,0.1792,0.1826,0.1829,0.1851,0.1851,0.1852,0.1898,0.1899,0.19,0.1901,0.1964,0.1965,0.1967,0.1957,0,0,0.1972,0.1973,0,0,0,0,0,0,0,0,0.1757,0.1761,0.182,0.1823,0.1828,0.187,0.1849,0.1888,0.1898,0.187,0.19,0.1902,0.1934,0.1938,0.1944,0.196,0.1963,0.1972,0.1973,0.1974,0.1974,0,0,0,0,0,0,0,0.1754,0.1759,0.1814,0.1821,0.1826,0.1837,0.1844,0.1856,0.1894,0.1873,0.1877,0.1886,0.1936,0.1942,0.1946,0.1964,0.1972,0.1973,0.1974,0.1975,0.2086,0.2088,0,0,0,0,0,0,0.175,0.1756,0.1812,0.1816,0.1796,0.1838,0.1845,0.1854,0.1894,0.1902,0.1885,0.1888,0.1939,0.1944,0.1948,0.2038,0.1974,0.1975,0.1976,0.2084,0.2087,0.2089,0,0,0,0,0,0,0.1748,0.1754,0.1809,0.1789,0.1797,0.1838,0.1848,0.1855,0.1899,0.1904,0.1912,0.1927,0.194,0.1946,0.1997,0.2037,0.1976,0.1977,0.2082,0.2085,0.2088,0.2154,0,0,0,0,0,0,0.1745,0.1753,0.1778,0.1789,0.1798,0.1845,0.1847,0.1855,0.1902,0.1907,0.1941,0.1946,0.1941,0.1995,0.1999,0.2038,0.1979,0.2079,0.2083,0.2087,0.215,0.2159,0.2167,0,0,0,0,0,0.1742,0.1763,0.1778,0.1786,0.1824,0.1847,0.1853,0.1883,0.1903,0.1927,0.1957,0.1947,0.2021,0.1998,0.2002,0.2043,0.2078,0.2082,0.2086,0.2146,0.2157,0.2167,0,0,0,0,0,0,0.1745,0.1771,0.1787,0.1817,0.1843,0.1856,0.1888,0.1905,0.1947,0.1966,0.1969,0.1977,0.2037,0.2032,0.2006,0.2087,0.2049,0.2054,0.2093,0.2103,0.2112,0.2114,0.198,0,0,0,0,0,0.1756,0.1783,0.1804,0.1834,0.185,0.1877,0.1899,0.192,0.1948,0.1969,0.1994,0.2023,0.2051,0.2073,0.2093,0.2135,0.2132,0.2165,0.2174,0.2182,0.2188,0.222,0.2232,0.2103,0.2103,0.2103,0,0,0.1767,0.1786,0.1804,0.1838,0.1863,0.1892,0.1894,0.1938,0.1972,0.1968,0.2037,0.2058,0.2071,0.2121,0.2147,0.2126,0.2219,0.2187,0.2193,0.2195,0.2225,0.2238,0.2249,0.2106,0.2106,0.2105,0,0,0.1786,0.182,0.1845,0.187,0.1915,0.193,0.1952,0.1989,0.2022,0.2078,0.209,0.2137,0.2179,0.2197,0.2208,0.2279,0.2266,0.2292,0.2338,0.237,0.238,0.2389,0.2406,0.2417,0.2295,0.2295,0.2295,0,0.1804,0.1833,0.1858,0.1886,0.1915,0.1952,0.1985,0.2019,0.2073,0.2104,0.2113,0.2198,0.2213,0.2268,0.2298,0.2299,0.231,0.2294,0.238,0.2389,0.2398,0.2413,0.2423,0.2299,0.2298,0.2298,0.2298,0,0.1825,0.1867,0.1887,0.1935,0.1968,0.2007,0.2048,0.2099,0.2147,0.2176,0.2257,0.2284,0.2332,0.2349,0.2347,0.2419,0.2406,0.2387,0.235,0.2414,0.2426,0.2436,0.2304,0.2303,0.2302,0.2301,0,0,0.1815,0.1888,0.1901,0.1932,0.2001,0.2022,0.2095,0.2156,0.2213,0.2271,0.2339,0.2397,0.2422,0.2438,0.245,0.2481,0.2552,0.2468,0.2468,0.2479,0.2622,0.2455,0.2449,0.2553,0.2555,0.2556,0.2608,0,0.1831,0.1884,0.1923,0.1989,0.2018,0.2079,0.214,0.2204,0.2271,0.2347,0.2391,0.2464,0.2453,0.2496,0.2526,0.2553,0.2581,0.254,0.2563,0.2563,0.2402,0.2455,0.2563,0.2615,0.2617,0.2618,0.2619,0,0.1829,0.1869,0.1931,0.2013,0.2035,0.2089,0.2193,0.2254,0.2361,0.2417,0.2493,0.2532,0.2608,0.2585,0.2654,0.2633,0.2638,0.2644,0.2645,0.2471,0.2414,0.2537,0.2636,0.2635,0.2633,0.2632,0.2631,0,0.1783,0.1871,0.1923,0.1951,0.2051,0.2107,0.2174,0.2282,0.2346,0.2477,0.2537,0.2619,0.2678,0.2704,0.2723,0.2705,0.278,0.275,0.2599,0.2588,0.2692,0.2682,0.279,0.279,0.279,0.279,0.279,0,0.1757,0.1804,0.1915,0.1941,0.2018,0.2098,0.2198,0.228,0.2405,0.2472,0.2576,0.2629,0.2715,0.2759,0.2758,0.2704,0.2808,0.2613,0.2591,0.272,0.2712,0.2699,0.2688,0.2792,0.2791,0.2791,0.2791,0,0.169,0.1765,0.1831,0.1952,0.1998,0.2056,0.2204,0.2264,0.2402,0.2496,0.2544,0.2669,0.2721,0.2771,0.2821,0.273,0.2709,0.2662,0.2807,0.2792,0.2488,0.248,0.2494,0.2489,0.2484,0.248,0.2477,0,0.1655,0.1685,0.1824,0.1867,0.1932,0.2035,0.2098,0.2249,0.2309,0.2485,0.2507,0.2624,0.2679,0.2611,0.2684,0.2667,0.2629,0.2597,0.2527,0.2481,0.2459,0.2459,0.2457,0.247,0.2468,0.2467,0.2466,0,0.1587,0.1659,0.1712,0.1801,0.1879,0.1947,0.2052,0.2082,0.2238,0.2381,0.2405,0.2425,0.2476,0.2499,0.2507,0.2488,0.2606,0.2548,0.2556,0.2491,0.2452,0.2434,0.2438,0.245,0.2452,0.2454,0.2455,0,0.1544,0.1564,0.1647,0.1708,0.1797,0.1823,0.1896,0.1949,0.2025,0.221,0.2213,0.2327,0.2449,0.2407,0.2415,0.2387,0.2341,0.2244,0.2268,0.2286,0.2192,0.2111,0.1989,0,0,0,0,0,0.1485,0.1488,0.1541,0.1591,0.167,0.1721,0.1841,0.1913,0.2062,0.2019,0.2109,0.2141,0.215,0.2218,0.2144,0.2329,0.2357,0.2232,0.2261,0.2361,0.238,0.2287,0,0,0,0,0,0,0.144,0.1486,0.1497,0.1478,0.1488,0.1554,0.1624,0.1727,0.1714,0.1871,0.189,0.2003,0.2052,0.2164,0.2099,0.2118,0.2088,0.2312,0.2306,0.2351,0.2368,0.2383,0.2294,0,0,0,0,0]},{"header":{"parameterUnit":"m.s-1","parameterCategory":2,"la1":30.2991,"la2":30.254,"lo1":-89.0895,"lo2":-89.0444,"dy":0.0017,"dx":0.0017,"nx":28,"ny":28,"refTime":"2025-04-07T03:00:00:Z","depth":"4","parameterNumber":3,"parameterNumberName":"V-component_of_CURRENTS"},"data":[0,0,0,0,0,0,0,0,0,0,0,0,0,0,0,0,0,0,0,0,0,0,0,0,0,0,0,0,0,0,0,0,0,0,0,0,0,0,0,0,0,0,0,0,0,0,0,0,0,0,0,0,0,0,0,0,0,0,0.0266,0.0266,0,0.0246,0.0245,0.0245,0.0236,0.0236,0.0236,0.0236,0.0214,0.0213,0.0213,0,0,0,0,0,0,0,0,0,0,0,0,0,0.0262,0.0263,0.0266,0.0266,0.0266,0.0246,0.0245,0.0245,0.0236,0.0236,0.0236,0.0236,0.0214,0.0213,0.0213,0,0,0,0,0,0,0,0,0,0,0,0,0,0.0255,0.0263,0.0266,0.0259,0.0258,0.0246,0.0245,0.0245,0.0236,0.0236,0.0236,0.0236,0.0214,0.0213,0.0212,0.0205,0,0,0.021,0.0209,0,0,0,0,0,0,0,0,0.0256,0.0255,0.026,0.026,0.0259,0.0244,0.0236,0.0232,0.0236,0.0244,0.0236,0.0237,0.0224,0.0222,0.0218,0.0204,0.0203,0.0209,0.0209,0.0208,0.0208,0,0,0,0,0,0,0,0.0256,0.0256,0.0258,0.026,0.0259,0.0245,0.0244,0.0235,0.0234,0.0244,0.0243,0.0241,0.0223,0.0219,0.0217,0.0203,0.0209,0.0209,0.0208,0.0208,0.0183,0.0183,0,0,0,0,0,0,0.0261,0.0257,0.0259,0.0257,0.0258,0.0245,0.0244,0.0248,0.0234,0.0232,0.0241,0.0241,0.022,0.0218,0.0216,0.0221,0.0208,0.0208,0.0207,0.0183,0.0183,0.0183,0,0,0,0,0,0,0.0261,0.0262,0.0259,0.0256,0.0255,0.0245,0.025,0.0248,0.0248,0.0232,0.023,0.0243,0.022,0.0218,0.0214,0.0219,0.0207,0.0206,0.0183,0.0183,0.0183,0.0221,0,0,0,0,0,0,0.0261,0.0262,0.0268,0.0257,0.0255,0.026,0.025,0.0247,0.0246,0.0246,0.0233,0.0231,0.022,0.0215,0.0213,0.0218,0.0205,0.0183,0.0183,0.0183,0.022,0.0222,0.0224,0,0,0,0,0,0.0261,0.0271,0.0268,0.0269,0.0264,0.026,0.0258,0.025,0.0246,0.025,0.024,0.0231,0.0212,0.0215,0.0212,0.0217,0.0183,0.0183,0.0183,0.0219,0.0222,0.0224,0,0,0,0,0,0,0.027,0.027,0.0268,0.0276,0.0271,0.0259,0.0261,0.0254,0.0249,0.0249,0.0233,0.0231,0.0228,0.0215,0.0218,0.0207,0.0195,0.0194,0.0223,0.0226,0.0228,0.0243,0.0205,0,0,0,0,0,0.0275,0.0285,0.0278,0.0284,0.0284,0.0273,0.027,0.0265,0.0258,0.0256,0.0246,0.0233,0.0223,0.022,0.0209,0.0206,0.0184,0.0205,0.0207,0.0209,0.0219,0.0186,0.0187,0.0183,0.0183,0.0183,0,0,0.028,0.0281,0.0286,0.0287,0.0282,0.0291,0.0272,0.0272,0.0279,0.0254,0.026,0.0242,0.0224,0.022,0.0218,0.0213,0.0197,0.0209,0.0211,0.022,0.0186,0.0187,0.0187,0.0182,0.0182,0.0182,0,0,0.0296,0.0296,0.0311,0.0311,0.0309,0.0303,0.0306,0.0297,0.0294,0.0293,0.0276,0.0263,0.0249,0.0238,0.023,0.0236,0.0209,0.0229,0.0256,0.0224,0.0225,0.0225,0.0192,0.0189,0.0231,0.0232,0.0232,0,0.0302,0.0323,0.0313,0.0327,0.0335,0.0313,0.0332,0.0324,0.0314,0.0316,0.0301,0.0276,0.0258,0.0254,0.0256,0.0242,0.0219,0.025,0.0228,0.0228,0.0227,0.0194,0.019,0.0233,0.0233,0.0233,0.0233,0,0.0331,0.0348,0.0356,0.0372,0.0376,0.0387,0.0378,0.0377,0.0367,0.0359,0.0349,0.0317,0.0305,0.029,0.0277,0.0266,0.0249,0.0234,0.0224,0.023,0.0194,0.0189,0.0236,0.0235,0.0235,0.0234,0,0,0.0345,0.0373,0.0377,0.0399,0.0404,0.0413,0.0421,0.0427,0.0442,0.041,0.042,0.0386,0.0365,0.0354,0.0325,0.0295,0.0265,0.0268,0.0265,0.0242,0.0193,0.0175,0.0167,0.0245,0.0245,0.0244,0.0168,0,0.0373,0.0417,0.0421,0.0463,0.0487,0.0477,0.0491,0.049,0.0483,0.0484,0.0436,0.0434,0.039,0.0386,0.0347,0.0291,0.0255,0.0287,0.0186,0.0184,0.0171,0.0162,0.0243,0.0164,0.0163,0.0162,0.0161,0,0.0403,0.0432,0.0482,0.0522,0.0532,0.0552,0.0578,0.059,0.0578,0.0571,0.0547,0.0511,0.0468,0.0426,0.0324,0.0347,0.0277,0.0222,0.0218,0.0188,0.0157,0.0157,0.0152,0.0153,0.0154,0.0154,0.0155,0,0.0428,0.0476,0.0522,0.0536,0.0573,0.0594,0.0613,0.0619,0.0646,0.0632,0.0642,0.0575,0.0551,0.0451,0.0334,0.0331,0.0213,0.0193,0.0106,0.0104,0.0128,0.0128,0.0117,0.0117,0.0117,0.0118,0.0118,0,0.0459,0.0497,0.0541,0.0568,0.0629,0.0637,0.0698,0.0703,0.0723,0.076,0.0695,0.0694,0.0556,0.0469,0.0353,0.0216,0.0224,0.0112,0.0084,0.0144,0.0147,0.0123,0.0125,0.0115,0.0115,0.0116,0.0116,0,0.048,0.0506,0.0567,0.062,0.0645,0.0691,0.0768,0.0809,0.0816,0.0859,0.0858,0.0788,0.0674,0.0523,0.036,0.0252,0.0116,0.0063,0.014,0.0117,0.0022,0.0027,-0.0038,-0.0039,-0.004,-0.0041,-0.0042,0,0.0494,0.0527,0.0612,0.0659,0.069,0.0764,0.0817,0.0855,0.0905,0.0915,0.0934,0.0842,0.0771,0.053,0.0363,0.0131,0.0094,0.0015,0.0014,0.0027,0.0006,0.0013,0.0019,-0.0044,-0.0044,-0.0044,-0.0045,0,0.0523,0.0554,0.0607,0.0707,0.0777,0.0864,0.0941,0.0982,0.1021,0.1027,0.0997,0.0867,0.0735,0.0538,0.0354,0.0187,0.0061,0.0003,0.0004,0.0002,0.0019,0.0001,0.0008,-0.0048,-0.0048,-0.0047,-0.0047,0,0.0546,0.0588,0.0661,0.075,0.0844,0.0931,0.0973,0.1023,0.1067,0.1067,0.1054,0.0903,0.0819,0.0567,0.04,0.023,0.0183,0.0115,0.011,0.0112,0.0171,0.0216,0.0186,0,0,0,0,0,0.0565,0.0616,0.0699,0.0798,0.0892,0.0953,0.1042,0.1075,0.1107,0.1094,0.1077,0.0951,0.07,0.0597,0.0425,0.0371,0.0148,0.0161,0.0067,-0.0069,-0.0065,-0.0023,0,0,0,0,0,0,0.0576,0.0655,0.0699,0.0822,0.0897,0.1008,0.1069,0.1093,0.1088,0.1086,0.0963,0.0895,0.066,0.0802,0.0419,0.0368,0.0279,0.0048,0.0043,-0.0071,-0.0067,-0.0064,-0.002,0,0,0,0,0]}]]